Date String (YYYY-MM-DD hh:mm:ss) UTC,Instrument flags,Ambient pressure (hPa),Sample flow (lpm),Bypass flow (lpm),Sample temperature (°C),Ambient temperature (°C),ASC tube jacket temperature (°C),LED temperature (°C),Box temperature (°C),Sample RH (%),Span deviation,Mass concentration (μg/m³),Mass concentration (μg/m³),Mass concentration (μg/m³)
DateTimeUTC,F1_M11,P_M11,Q1_M11,Q2_M11,T1_M11,T2_M11,T3_M11,T4_M11,T5_M11,U1_M11,ZSPAN_M11,X0_M11,X2_M11,X1_M11
2022-12-02 11:00:00,,0810.1,4.99,0.00,22.0,20.8,00.0,30.9,23.9,12.8,0000.0,0004.32,0000.77,0000.39
2022-12-02 11:01:00,,0810.1,5.00,0.00,22.0,20.7,00.0,30.9,23.9,12.9,0000.0,0004.08,0000.76,0000.39
2022-12-02 11:02:00,,0810.2,5.01,0.00,22.0,20.7,00.0,30.9,23.8,13.2,0000.0,0002.87,0000.77,0000.38
2022-12-02 11:03:00,,0810.1,5.01,0.00,22.0,20.6,00.0,30.9,23.7,13.1,0000.0,0002.15,0000.74,0000.38
2022-12-02 11:04:00,,0810.1,5.00,0.00,22.0,20.5,00.0,30.9,23.7,13.0,0000.0,0001.76,0000.73,0000.37
2022-12-02 11:05:00,,0810.1,4.98,0.00,22.0,20.5,00.0,30.9,23.7,13.1,0000.0,0001.78,0000.72,0000.37
2022-12-02 11:06:00,,0810.0,5.01,0.00,21.9,20.4,00.0,30.9,23.6,13.2,0000.0,0001.75,0000.70,0000.36
2022-12-02 11:07:00,,0810.0,5.00,0.00,21.9,20.4,00.0,30.9,23.6,13.0,0000.0,0001.75,0000.71,0000.36
2022-12-02 11:08:00,,0810.0,5.00,0.00,21.9,20.3,00.0,30.9,23.6,13.0,0000.0,0001.77,0000.71,0000.36
2022-12-02 11:09:00,,0810.0,5.00,0.00,21.9,20.3,00.0,30.9,23.5,13.1,0000.0,0001.88,0000.72,0000.36
2022-12-02 11:10:00,,0810.1,5.00,0.00,21.8,20.2,00.0,30.8,23.5,13.1,0000.0,0001.78,0000.70,0000.36
2022-12-02 11:11:00,,0810.2,5.00,0.00,21.8,20.2,00.0,30.8,23.5,13.5,0000.0,0001.70,0000.71,0000.36
2022-12-02 11:12:00,,0810.1,4.99,0.00,21.8,20.2,00.0,30.8,23.5,13.4,0000.0,0001.81,0000.71,0000.36
2022-12-02 11:13:00,,0810.1,4.99,0.00,21.8,20.1,00.0,30.8,23.5,12.8,0000.0,0002.44,0000.74,0000.37
2022-12-02 11:14:00,,0810.2,4.99,0.00,21.8,20.1,00.0,30.8,23.4,13.1,0000.0,0002.51,0000.78,0000.38
2022-12-02 11:15:00,,0810.2,5.02,0.00,21.8,20.5,00.0,30.8,23.6,13.5,0000.0,0002.46,0000.77,0000.38
2022-12-02 11:16:00,,0810.2,5.00,0.00,21.9,21.5,00.0,30.7,23.9,13.2,0000.0,0002.50,0000.80,0000.39
2022-12-02 11:17:00,,0810.1,4.99,0.00,22.0,22.2,00.0,30.8,24.1,13.1,0000.0,0002.48,0000.80,0000.39
2022-12-02 11:18:00,,0810.2,5.00,0.00,22.1,22.0,00.0,30.8,24.2,13.0,0000.0,0002.54,0000.81,0000.38
2022-12-02 11:19:00,,0810.1,5.00,0.00,22.1,21.7,00.0,30.9,24.1,13.1,0000.0,0002.43,0000.77,0000.37
2022-12-02 11:20:00,,0810.1,5.00,0.00,22.1,21.4,00.0,30.9,24.0,13.1,0000.0,0002.27,0000.73,0000.37
2022-12-02 11:21:00,,0810.0,5.01,0.00,22.1,21.2,00.0,30.9,24.0,13.3,0000.0,0002.22,0000.71,0000.36
2022-12-02 11:22:00,,0810.1,5.00,0.00,22.1,21.1,00.0,30.9,24.0,12.8,0000.0,0002.27,0000.72,0000.36
2022-12-02 11:23:00,,0810.1,5.00,0.00,22.1,20.9,00.0,30.9,23.9,12.9,0000.0,0002.10,0000.74,0000.37
2022-12-02 11:24:00,,0810.2,4.99,0.00,22.1,20.8,00.0,30.9,23.9,12.8,0000.0,0001.31,0000.69,0000.37
2022-12-02 11:25:00,,0810.2,5.00,0.00,22.1,20.7,00.0,30.9,23.8,13.0,0000.0,0001.14,0000.63,0000.36
2022-12-02 11:26:00,,0810.2,5.00,0.00,22.0,20.6,00.0,30.9,23.8,13.3,0000.0,0001.14,0000.63,0000.36
2022-12-02 11:27:00,,0810.2,5.01,0.00,22.0,20.6,00.0,30.9,23.7,13.4,0000.0,0001.12,0000.63,0000.36
2022-12-02 11:28:00,,0810.1,5.00,0.00,22.0,20.5,00.0,30.9,23.7,13.1,0000.0,0001.24,0000.68,0000.36
2022-12-02 11:29:00,,0810.2,5.01,0.00,22.0,20.4,00.0,30.9,23.7,13.2,0000.0,0001.30,0000.70,0000.36
2022-12-02 11:30:00,,0810.1,4.99,0.00,22.0,20.4,00.0,30.9,23.6,13.1,0000.0,0001.52,0000.74,0000.36
2022-12-02 11:31:00,,0810.1,4.99,0.00,21.9,20.4,00.0,30.9,23.6,13.3,0000.0,0001.57,0000.73,0000.36
2022-12-02 11:32:00,,0810.1,5.00,0.00,21.9,20.3,00.0,30.9,23.6,13.2,0000.0,0001.68,0000.75,0000.35
2022-12-02 11:33:00,,0810.2,5.00,0.00,21.9,20.3,00.0,30.9,23.6,13.3,0000.0,0001.67,0000.74,0000.35
2022-12-02 11:34:00,,0810.1,5.00,0.00,21.9,20.3,00.0,30.9,23.5,13.3,0000.0,0001.69,0000.75,0000.34
2022-12-02 11:35:00,,0810.1,5.00,0.00,21.8,20.3,00.0,30.9,23.5,13.3,0000.0,0001.74,0000.77,0000.34
2022-12-02 11:36:00,,0810.1,5.00,0.00,21.8,20.2,00.0,30.9,23.5,13.4,0000.0,0001.76,0000.78,0000.35
2022-12-02 11:37:00,,0810.2,5.00,0.00,21.8,20.2,00.0,30.9,23.5,13.1,0000.0,0001.76,0000.79,0000.34
2022-12-02 11:38:00,,0810.2,5.00,0.00,21.8,20.2,00.0,30.9,23.5,13.4,0000.0,0001.82,0000.76,0000.34
2022-12-02 11:39:00,,0810.1,5.00,0.00,21.8,20.2,00.0,30.8,23.4,13.5,0000.0,0001.63,0000.67,0000.33
2022-12-02 11:40:00,,0810.1,5.01,0.00,21.8,20.1,00.0,30.8,23.4,13.6,0000.0,0001.57,0000.64,0000.33
2022-12-02 11:41:00,,0810.1,4.99,0.00,21.7,20.1,00.0,30.8,23.4,13.5,0000.0,0001.45,0000.64,0000.33
2022-12-02 11:42:00,,0810.1,5.00,0.00,21.7,20.1,00.0,30.8,23.4,13.3,0000.0,0001.44,0000.64,0000.34
2022-12-02 11:43:00,,0810.2,5.00,0.00,21.7,20.1,00.0,30.8,23.4,13.5,0000.0,0001.44,0000.63,0000.34
2022-12-02 11:44:00,,0810.2,5.00,0.00,21.7,20.1,00.0,30.8,23.3,13.7,0000.0,0001.38,0000.62,0000.34
2022-12-02 11:45:00,,0810.2,5.01,0.00,21.7,20.1,00.0,30.7,23.3,13.9,0000.0,0001.38,0000.61,0000.35
2022-12-02 11:46:00,,0810.2,5.01,0.00,21.7,20.6,00.0,30.7,23.5,13.9,0000.0,0001.76,0000.58,0000.34
2022-12-02 11:47:00,,0810.2,5.00,0.00,21.8,21.7,00.0,30.7,23.8,13.8,0000.0,0002.43,0000.60,0000.35
2022-12-02 11:48:00,,0810.2,4.99,0.00,21.9,22.2,00.0,30.7,24.0,13.7,0000.0,0002.75,0000.63,0000.35
2022-12-02 11:49:00,,0810.1,4.99,0.00,22.0,21.9,00.0,30.8,24.0,13.4,0000.0,0003.44,0000.62,0000.35
2022-12-02 11:50:00,,0810.1,5.01,0.00,22.0,21.6,00.0,30.8,24.0,13.1,0000.0,0003.87,0000.62,0000.35
2022-12-02 11:51:00,,0810.2,5.00,0.00,22.0,21.4,00.0,30.9,24.0,13.2,0000.0,0003.87,0000.63,0000.35
2022-12-02 11:52:00,,0810.2,5.00,0.00,22.0,21.2,00.0,30.9,23.9,13.4,0000.0,0003.83,0000.62,0000.35
2022-12-02 11:53:00,,0810.3,5.00,0.00,22.0,21.0,00.0,30.9,23.9,13.2,0000.0,0003.79,0000.63,0000.34
2022-12-02 11:54:00,,0810.3,5.00,0.00,22.0,21.0,00.0,30.9,23.9,13.4,0000.0,0003.80,0000.65,0000.34
2022-12-02 11:55:00,,0810.3,5.00,0.00,22.0,20.9,00.0,30.9,23.8,13.3,0000.0,0003.79,0000.64,0000.34
2022-12-02 11:56:00,,0810.3,5.00,0.00,22.0,20.9,00.0,30.9,23.8,13.4,0000.0,0003.73,0000.62,0000.34
2022-12-02 11:57:00,,0810.2,5.00,0.00,22.0,20.8,00.0,30.9,23.8,13.5,0000.0,0003.27,0000.61,0000.34
2022-12-02 11:58:00,,0810.3,5.02,0.00,22.0,20.8,00.0,30.9,23.8,13.6,0000.0,0002.59,0000.58,0000.33
2022-12-02 11:59:00,,0810.4,4.99,0.00,22.0,20.7,00.0,31.0,23.7,13.4,0000.0,0002.36,0000.55,0000.32
